GW0940 Weather Reports


time (UTC)temp
C
wind
direction
speed
KPH
gust
KPH
rain 1hr
cm
rain 24hr
cm
rain mn
cm
humidity
%
barometer
mb
20260507205025 13 302 4.8 8.0 0.00 0.05 0.05 74 1010.5
20260507204521 13 309 14.5 20.9 0.00 0.05 0.05 77 1010.1
20260507204019 13 353 0.0 8.0 0.00 0.05 0.05 80 1010.5
20260507203517 13 353 1.6 9.7 0.00 0.05 0.05 81 1010.4
20260507203014 13 297 6.4 8.0 0.00 0.05 0.05 79 1010.7
20260507202509 13 276 0.0 6.4 0.00 0.05 0.05 80 1010.4
20260507202006 13 348 3.2 11.3 0.00 0.05 0.05 79 1010.2
20260507201502 13 30 3.2 4.8 0.00 0.05 0.05 82 1010.6
20260507200958 13 257 0.0 4.8 0.00 0.05 0.05 81 1010.7
20260507200454 13 259 0.0 6.4 0.00 0.05 0.05 77 1010.7
20260507195949 13 66 1.6 3.2 0.00 0.05 0.05 78 1011.0
20260507195448 13 237 4.8 8.0 0.00 0.05 0.05 79 1011.0
20260507194945 13 10 4.8 4.8 0.00 0.05 0.05 78 1010.8
20260507194441 13 114 0.0 3.2 0.00 0.05 0.05 76 1010.7
20260507193937 13 331 3.2 3.2 0.00 0.05 0.05 78 1010.7
20260507193434 13 90 0.0 4.8 0.00 0.05 0.05 76 1010.6
20260507192931 13 300 4.8 4.8 0.00 0.05 0.05 78 1010.3
20260507192427 13 307 4.8 6.4 0.00 0.05 0.05 76 1010.7
20260507191924 13 0 0.0 3.2 0.00 0.05 0.05 79 1011.2
20260507191420 13 303 3.2 4.8 0.00 0.05 0.05 79 1011.3
20260507190917 13 355 0.0 4.8 0.00 0.05 0.05 76 1011.1
20260507190415 13 270 0.0 3.2 0.00 0.05 0.05 75 1010.8
20260507185914 13 90 1.6 1.6 0.00 0.05 0.05 71 1010.9
20260507185410 13 147 0.0 3.2 0.00 0.05 0.05 71 1011.1
20260507184907 14 123 3.2 3.2 0.00 0.05 0.05 65 1011.3
20260507184405 14 90 0.0 3.2 0.00 0.05 0.05 66 1011.0
20260507183902 14 140 3.2 4.8 0.00 0.05 0.05 63 1011.8
20260507183359 15 90 0.0 3.2 0.00 0.05 0.05 64 1011.4
20260507182856 15 0 3.2 3.2 0.00 0.05 0.05 62 1011.5
20260507182352 14 120 1.6 3.2 0.00 0.05 0.05 64 1011.2
20260507181848 14 144 3.2 4.8 0.00 0.05 0.05 65 1011.5
20260507181344 14 106 0.0 3.2 0.00 0.05 0.05 67 1011.5
20260507180841 13 132 0.0 4.8 0.00 0.05 0.05 67 1011.7
20260507180338 14 114 1.6 3.2 0.00 0.05 0.05 68 1011.7
20260507175834 14 99 0.0 4.8 0.00 0.05 0.05 67 1011.7
20260507175331 14 306 1.6 4.8 0.00 0.05 0.05 64 1011.7
20260507174828 13 301 0.0 4.8 0.00 0.05 0.05 63 1011.6
20260507174326 13 295 3.2 4.8 0.00 0.05 0.05 63 1011.7
20260507173823 14 331 1.6 3.2 0.00 0.05 0.05 63 1011.8
20260507173320 14 300 3.2 3.2 0.00 0.05 0.05 59 1011.7
20260507172816 14 100 4.8 6.4 0.00 0.05 0.05 62 1011.6
20260507172313 15 81 0.0 4.8 0.00 0.05 0.05 57 1011.6
20260507171809 15 8 0.0 3.2 0.00 0.05 0.05 70 1011.7
20260507171306 15 144 0.0 3.2 0.00 0.05 0.05 71 1011.6
20260507170803 14 99 0.0 3.2 0.00 0.05 0.05 72 1012.0
20260507170259 14 90 0.0 4.8 0.00 0.05 0.05 71 1012.4
20260507165756 14 140 0.0 3.2 0.00 0.05 0.05 73 1012.4
20260507165252 14 8 0.0 0.0 0.00 0.05 0.05 72 1012.4
20260507164748 14 281 6.4 8.0 0.00 0.05 0.05 70 1012.4
20260507164245 14 99 0.0 4.8 0.00 0.05 0.05 71 1012.5
20260507163742 14 60 0.0 1.6 0.00 0.05 0.05 70 1012.5
20260507163240 14 151 0.0 4.8 0.00 0.05 0.05 71 1012.2
20260507162736 13 97 0.0 3.2 0.00 0.05 0.05 69 1012.6
20260507162232 13 152 3.2 8.0 0.00 0.05 0.05 68 1012.7
20260507161729 13 147 3.2 9.7 0.00 0.05 0.05 69 1012.5
20260507161225 13 154 3.2 6.4 0.00 0.05 0.05 70 1012.5
20260507160721 13 142 4.8 4.8 0.00 0.05 0.05 72 1012.7
20260507160218 13 139 3.2 6.4 0.00 0.05 0.05 72 1012.6
20260507155714 13 48 0.0 3.2 0.00 0.05 0.05 74 1012.9
20260507155210 13 145 4.8 6.4 0.00 0.05 0.05 73 1012.9
20260507154706 14 34 0.0 4.8 0.00 0.05 0.05 69 1012.9
20260507154205 14 29 3.2 4.8 0.00 0.05 0.05 69 1012.6
20260507153701 13 139 3.2 8.0 0.00 0.05 0.05 69 1012.8
20260507153157 14 131 0.0 9.7 0.00 0.05 0.05 71 1012.8
20260507152653 14 126 0.0 6.4 0.00 0.05 0.05 73 1012.7
20260507152150 14 135 3.2 4.8 0.00 0.05 0.05 73 1012.6
20260507151646 15 126 8.0 14.5 0.00 0.05 0.05 73 1012.5
20260507151143 15 109 1.6 6.4 0.00 0.05 0.05 73 1012.5
20260507150640 15 154 3.2 3.2 0.00 0.05 0.05 77 1012.6
20260507150137 14 114 3.2 3.2 0.00 0.05 0.05 78 1012.9
20260507145632 14 103 1.6 4.8 0.00 0.05 0.05 79 1013.0
20260507145130 14 117 3.2 3.2 0.00 0.05 0.05 77 1013.2
20260507144626 14 150 6.4 9.7 0.00 0.05 0.05 75 1013.0
20260507144124 14 154 6.4 8.0 0.00 0.05 0.05 77 1013.1
20260507143620 15 148 6.4 8.0 0.00 0.05 0.05 80 1013.1
20260507143118 15 151 3.2 4.8 0.00 0.05 0.05 83 1013.0
20260507142613 14 146 3.2 4.8 0.00 0.05 0.05 85 1013.0
20260507142110 14 157 3.2 6.4 0.00 0.05 0.05 85 1013.3
20260507141606 14 141 4.8 8.0 0.00 0.05 0.05 85 1013.2
20260507141103 14 121 3.2 3.2 0.00 0.05 0.05 85 1013.1
20260507140600 13 123 3.2 6.4 0.00 0.05 0.05 83 1013.6
20260507140057 13 114 0.0 4.8 0.00 0.05 0.05 85 1013.3
20260507135554 13 90 1.6 8.0 0.00 0.05 0.05 84 1013.6
20260507135051 14 281 4.8 6.4 0.00 0.05 0.05 82 1013.2
20260507134548 15 117 3.2 6.4 0.00 0.05 0.05 82 1013.2
20260507134043 15 40 0.0 3.2 0.00 0.05 0.05 84 1013.1
20260507133540 14 143 3.2 4.8 0.00 0.05 0.05 82 1013.3
20260507133038 14 307 0.0 6.4 0.00 0.05 0.05 82 1013.3
20260507132534 14 84 1.6 3.2 0.00 0.05 0.05 83 1013.1
20260507132031 13 141 3.2 9.7 0.00 0.05 0.05 83 1013.4
20260507131528 14 135 3.2 4.8 0.00 0.05 0.05 83 1013.2
20260507131025 15 140 4.8 4.8 0.00 0.05 0.05 83 1013.1
20260507130522 15 143 3.2 4.8 0.00 0.05 0.05 83 1013.1
20260507130020 14 120 0.0 4.8 0.00 0.05 0.05 84 1013.1
20260507125518 14 147 3.2 3.2 0.00 0.05 0.05 84 1013.0
20260507125015 13 115 3.2 9.7 0.00 0.05 0.05 84 1013.4
20260507124512 14 334 0.0 6.4 0.00 0.05 0.05 83 1013.3
20260507124009 14 262 0.0 8.0 0.00 0.05 0.05 83 1013.2
20260507123507 14 5 0.0 4.8 0.00 0.05 0.05 85 1013.4
20260507123004 14 98 1.6 4.8 0.00 0.05 0.05 86 1013.3
20260507122459 13 153 4.8 6.4 0.00 0.05 0.05 88 1013.0
20260507121955 13 140 4.8 8.0 0.00 0.05 0.05 88 1013.0
20260507121451 13 151 0.0 3.2 0.00 0.05 0.05 89 1012.9
20260507120947 13 90 0.0 4.8 0.00 0.05 0.05 89 1012.7
20260507120443 13 111 0.0 3.2 0.00 0.05 0.05 89 1012.4
20260507115940 13 23 3.2 6.4 0.00 0.05 0.05 89 1012.9
20260507115436 13 99 0.0 3.2 0.00 0.05 0.05 90 1013.0
20260507114932 13 133 4.8 4.8 0.00 0.05 0.05 91 1013.1
20260507114429 13 135 0.0 8.0 0.00 0.05 0.05 90 1013.1
20260507113926 13 106 0.0 4.8 0.00 0.05 0.05 91 1013.2
20260507113423 13 121 3.2 4.8 0.00 0.05 0.05 92 1012.7
20260507112920 13 112 3.2 4.8 0.00 0.05 0.05 91 1012.8
20260507112418 13 145 1.6 6.4 0.00 0.05 0.05 92 1013.0
20260507111915 13 119 3.2 4.8 0.00 0.05 0.05 92 1012.7
20260507111412 13 138 4.8 4.8 0.00 0.05 0.05 92 1012.6
20260507110908 13 135 3.2 4.8 0.00 0.05 0.05 92 1012.8
20260507110404 13 120 1.6 3.2 0.00 0.05 0.05 93 1012.9
20260507105901 13 107 3.2 4.8 0.00 0.05 0.05 93 1012.7
20260507105358 13 159 3.2 3.2 0.00 0.05 0.05 94 1012.2
20260507104855 12 123 3.2 3.2 0.00 0.05 0.05 93 1012.6
20260507104351 13 146 4.8 8.0 0.00 0.05 0.05 94 1012.6
20260507103847 13 99 0.0 4.8 0.00 0.05 0.05 94 1012.5
20260507103344 13 152 3.2 3.2 0.00 0.05 0.05 94 1012.4
20260507102840 13 26 1.6 8.0 0.00 0.05 0.05 94 1011.9
20260507102337 13 126 0.0 4.8 0.00 0.05 0.05 94 1011.8
20260507101833 13 129 3.2 4.8 0.00 0.05 0.05 95 1012.2
20260507101328 13 33 0.0 4.8 0.00 0.05 0.05 96 1011.9
20260507100825 13 90 0.0 3.2 0.00 0.05 0.05 97 1012.0
20260507100323 13 98 0.0 3.2 0.00 0.05 0.05 97 1012.4
20260507095821 13 278 1.6 4.8 0.00 0.05 0.05 97 1012.1
20260507095317 13 336 3.2 3.2 0.00 0.05 0.05 98 1012.3
20260507094814 13 148 0.0 3.2 0.00 0.05 0.05 97 1012.1
20260507094311 13 114 0.0 1.6 0.00 0.05 0.05 97 1012.0
20260507093808 13 0 0.0 1.6 0.00 0.05 0.05 97 1011.8
20260507093307 13 117 0.0 4.8 0.00 0.05 0.05 97 1011.8
20260507092804 13 126 0.0 3.2 0.00 0.05 0.05 97 1012.0
20260507092300 13 126 0.0 1.6 0.00 0.05 0.05 97 1012.1
20260507091756 13 120 4.8 4.8 0.00 0.05 0.05 97 1011.9
20260507091253 13 147 3.2 6.4 0.00 0.05 0.05 97 1011.6
20260507090753 13 137 6.4 8.0 0.00 0.05 0.05 97 1011.3
20260507090250 13 142 3.2 6.4 0.00 0.05 0.05 96 1011.5
20260507085747 13 139 3.2 3.2 0.00 0.05 0.05 96 1011.7
20260507085244 13 143 4.8 8.0 0.00 0.05 0.05 96 1011.6
20260507084742 13 152 3.2 8.0 0.00 0.05 0.05 97 1011.8
20260507084237 13 140 4.8 8.0 0.00 0.05 0.05 97 1011.9
20260507083735 13 145 1.6 4.8 0.00 0.05 0.05 97 1011.8
20260507083232 13 114 0.0 3.2 0.00 0.05 0.05 97 1011.9
20260507082728 13 123 4.8 4.8 0.00 0.05 0.05 97 1011.9
20260507082224 13 157 6.4 8.0 0.00 0.05 0.05 97 1011.8
20260507081721 13 123 0.0 4.8 0.00 0.05 0.05 97 1011.6
20260507081217 13 140 0.0 3.2 0.00 0.05 0.05 97 1011.5
20260507080714 13 132 3.2 8.0 0.00 0.05 0.05 97 1011.4
20260507080210 13 140 0.0 6.4 0.00 0.05 0.05 97 1011.1
20260507075705 13 150 3.2 8.0 0.00 0.05 0.05 97 1011.2
20260507075202 13 140 0.0 4.8 0.00 0.05 0.05 98 1011.2
20260507074658 13 135 4.8 8.0 0.00 0.05 0.05 98 1011.2
20260507074157 13 150 3.2 3.2 0.00 0.05 0.05 98 1010.8
20260507073653 13 146 4.8 4.8 0.00 0.05 0.05 97 1011.0
20260507073149 13 142 3.2 4.8 0.00 0.05 0.05 97 1010.8
20260507072647 13 147 3.2 4.8 0.00 0.05 0.05 97 1011.0
20260507072144 13 132 0.0 4.8 0.00 0.05 0.05 97 1010.8
20260507071642 13 155 4.8 6.4 0.00 0.05 0.05 97 1011.1
20260507071138 13 116 11.3 16.1 0.00 0.05 0.05 97 1011.3
20260507070635 13 111 4.8 9.7 0.00 0.05 0.05 98 1011.1
20260507070132 14 149 8.0 8.0 0.00 0.05 0.05 98 1011.4
20260507065628 14 150 12.9 14.5 0.00 0.05 0.05 98 1011.3
20260507065125 14 134 6.4 25.7 0.00 0.05 0.05 99 1011.3
20260507064623 14 165 6.4 11.3 0.00 0.05 0.05 99 1011.2
20260507064121 14 144 6.4 11.3 0.00 0.05 0.05 99 1011.2
20260507063618 14 142 8.0 12.9 0.05 0.05 0.05 99 1010.9
20260507063115 14 146 4.8 16.1 0.05 0.05 0.05 99 1010.4
20260507062612 14 153 4.8 8.0 0.00 0.05 0.05 99 1010.0
20260507062110 14 153 6.4 6.4 0.00 0.05 0.05 99 1009.9
20260507061607 14 185 0.0 4.8 0.00 0.05 0.05 99 1009.8
20260507061105 14 154 0.0 3.2 0.00 0.05 0.05 99 1009.9
20260507060603 14 114 3.2 3.2 0.00 0.05 0.05 99 1009.8
20260507060059 14 103 1.6 4.8 0.05 0.05 0.05 99 1009.6
20260507055554 14 139 0.0 3.2 0.05 0.05 0.05 99 1009.7
20260507055051 15 139 3.2 4.8 0.00 0.05 0.05 99 1010.0
20260507054547 15 154 4.8 8.0 0.00 0.05 0.05 99 1010.1
20260507054044 15 156 3.2 8.0 0.00 0.05 0.05 99 1010.5
20260507053542 15 142 4.8 6.4 0.00 0.05 0.05 99 1010.6
20260507053040 15 145 6.4 8.0 0.05 0.05 0.05 99 1010.6
20260507052538 15 132 6.4 8.0 0.05 0.05 0.05 99 1010.6
20260507052034 15 158 4.8 8.0 0.00 0.03 0.03 99 1010.8
20260507051532 16 138 4.8 6.4 0.00 0.03 0.03 99 1010.7
20260507051029 16 147 4.8 8.0 0.05 0.03 0.03 99 1010.5
20260507050525 16 154 6.4 8.0 0.05 0.03 0.03 99 1010.7
20260507050022 17 154 4.8 16.1 0.00 0.00 0.00 99 1010.6
20260507045518 17 153 8.0 9.7 0.05 0.00 0.00 99 1010.7
20260507045016 17 132 3.2 3.2 0.05 0.00 0.00 99 1010.5
20260507044512 17 155 4.8 11.3 0.00 0.00 0.00 99 1010.4
20260507044009 17 90 0.0 0.0 0.00 0.00 0.00 99 1010.5
20260507043505 17 270 0.0 1.6 0.00 0.00 0.00 99 1009.8
20260507043002 17 114 0.0 1.6 0.00 0.00 0.00 99 1010.2
20260507042458 17 166 0.0 0.0 0.00 0.00 0.00 99 1010.3
20260507041954 17 166 0.0 3.2 0.00 0.00 0.00 99 1010.2
20260507041451 17 157 0.0 0.0 0.00 0.00 0.00 99 1009.9
20260507040948 17 157 0.0 0.0 0.00 0.00 0.00 99 1010.0
20260507040443 17 157 0.0 0.0 0.00 0.00 0.00 99 1009.8
20260507035940 17 160 1.6 4.8 0.00 0.18 0.18 99 1009.7
20260507035436 17 165 0.0 1.6 0.00 0.18 0.18 99 1009.9
20260507034933 17 263 0.0 0.0 0.00 0.18 0.18 99 1009.8
20260507034430 17 263 0.0 0.0 0.00 0.18 0.18 99 1009.6
20260507033928 17 263 0.0 0.0 0.00 0.18 0.18 99 1009.9
20260507033426 17 263 0.0 0.0 0.00 0.18 0.18 99 1009.8
20260507032922 17 279 0.0 0.0 0.00 0.18 0.18 99 1009.8
20260507032420 17 154 0.0 0.0 0.00 0.18 0.18 99 1010.0
20260507031915 17 154 0.0 0.0 0.00 0.18 0.18 99 1010.4
20260507031412 17 154 0.0 0.0 0.00 0.18 0.18 99 1010.1
20260507030909 17 154 0.0 0.0 0.00 0.18 0.18 99 1010.0
20260507030406 17 154 0.0 0.0 0.00 0.18 0.18 99 1009.7
20260507025903 17 154 0.0 0.0 0.00 0.18 0.18 99 1009.7
20260507025401 17 154 0.0 3.2 0.00 0.18 0.18 99 1009.4
20260507024858 17 166 0.0 1.6 0.00 0.18 0.18 99 1009.4
20260507024355 17 151 0.0 1.6 0.00 0.18 0.18 99 1009.3
20260507023851 17 154 0.0 1.6 0.00 0.18 0.18 99 1009.1
20260507023348 17 151 1.6 3.2 0.00 0.18 0.18 98 1009.2
20260507022845 17 165 0.0 0.0 0.00 0.18 0.18 98 1009.1
20260507022342 17 165 0.0 0.0 0.00 0.18 0.18 97 1009.5
20260507021838 17 0 0.0 0.0 0.00 0.18 0.18 97 1009.3
20260507021333 17 0 0.0 0.0 0.00 0.18 0.18 98 1009.7
20260507020831 17 0 0.0 0.0 0.00 0.18 0.18 98 1009.6
20260507020328 17 151 0.0 0.0 0.00 0.18 0.18 98 1009.5
20260507015825 17 151 0.0 0.0 0.00 0.18 0.18 98 1009.7
20260507015323 17 151 0.0 0.0 0.00 0.18 0.18 98 1009.9
20260507014820 17 151 0.0 0.0 0.00 0.18 0.18 98 1010.1
20260507014316 17 151 0.0 0.0 0.00 0.18 0.18 98 1010.1
20260507013812 17 160 1.6 1.6 0.00 0.18 0.18 97 1009.9
20260507013310 17 165 0.0 1.6 0.00 0.18 0.18 96 1009.8
20260507012807 17 160 0.0 1.6 0.00 0.18 0.18 96 1010.0
20260507012306 17 166 0.0 1.6 0.00 0.18 0.18 95 1009.8
20260507011800 18 165 0.0 0.0 0.00 0.18 0.18 95 1009.6
20260507011257 18 165 0.0 0.0 0.00 0.18 0.18 95 1009.4
20260507010756 18 157 0.0 0.0 0.00 0.18 0.18 94 1009.6
20260507010252 18 165 0.0 1.6 0.00 0.18 0.18 94 1009.4
20260507005750 18 166 0.0 3.2 0.00 0.18 0.18 94 1009.6
20260507005246 18 165 0.0 0.0 0.00 0.18 0.18 93 1009.5
20260507004743 18 165 0.0 0.0 0.00 0.18 0.18 92 1009.2
20260507004241 19 165 1.6 1.6 0.00 0.18 0.18 92 1009.6
20260507003736 19 180 0.0 0.0 0.00 0.18 0.18 91 1009.5
20260507003232 19 180 0.0 0.0 0.00 0.18 0.18 91 1009.6
20260507002728 19 180 0.0 0.0 0.00 0.18 0.18 91 1009.5
20260507002224 19 99 0.0 0.0 0.00 0.18 0.18 90 1009.4
20260507001721 20 131 0.0 4.8 0.00 0.18 0.18 90 1009.4
20260507001218 20 285 0.0 3.2 0.00 0.18 0.18 89 1009.2
20260507000715 20 286 3.2 4.8 0.00 0.18 0.18 88 1009.3
20260507000212 20 299 4.8 4.8 0.00 0.18 0.18 88 1009.3
20260506235708 20 162 1.6 3.2 0.00 0.18 0.18 87 1009.2
20260506235203 20 166 0.0 0.0 0.00 0.18 0.18 87 1009.2
20260506234700 21 342 1.6 3.2 0.00 0.18 0.18 86 1008.9
20260506234157 21 0 0.0 4.8 0.00 0.18 0.18 86 1009.0
20260506233655 21 117 0.0 0.0 0.00 0.18 0.18 86 1008.8
20260506233151 21 289 1.6 4.8 0.00 0.18 0.18 86 1008.8
20260506232648 21 20 4.8 4.8 0.00 0.18 0.18 85 1008.9
20260506232143 21 292 3.2 4.8 0.00 0.18 0.18 85 1009.1
20260506231640 21 159 3.2 4.8 0.00 0.18 0.18 85 1008.9
20260506231139 21 306 1.6 6.4 0.00 0.18 0.18 85 1008.8
20260506230635 21 270 0.0 4.8 0.00 0.18 0.18 85 1008.9
20260506230132 21 106 1.6 6.4 0.00 0.18 0.18 85 1008.7
20260506225629 21 348 1.6 8.0 0.00 0.18 0.18 84 1008.8
20260506225125 21 40 3.2 4.8 0.00 0.18 0.18 84 1008.8
20260506224622 21 188 0.0 4.8 0.00 0.18 0.18 84 1008.8
20260506224118 21 270 0.0 3.2 0.00 0.18 0.18 84 1008.8
20260506223615 21 6 0.0 4.8 0.00 0.18 0.18 84 1009.0
20260506223111 21 261 0.0 6.4 0.00 0.18 0.18 83 1008.9
20260506222608 21 310 0.0 4.8 0.00 0.18 0.18 83 1008.6
20260506222104 22 166 0.0 4.8 0.00 0.18 0.18 83 1008.9
20260506221602 21 114 3.2 4.8 0.00 0.18 0.18 83 1008.6
20260506221100 22 159 3.2 4.8 0.00 0.18 0.18 83 1008.7
20260506220556 22 160 0.0 4.8 0.00 0.18 0.18 83 1009.0
20260506220051 21 103 0.0 4.8 0.00 0.18 0.18 83 1008.8
20260506215548 21 283 0.0 6.4 0.00 0.18 0.18 83 1008.8
20260506215044 22 90 0.0 4.8 0.00 0.18 0.18 83 1009.1
20260506214541 22 281 0.0 6.4 0.00 0.18 0.18 83 1008.8
20260506214038 21 343 6.4 8.0 0.00 0.18 0.18 82 1009.0
20260506213536 21 26 3.2 9.7 0.00 0.18 0.18 83 1009.0
20260506213033 21 33 0.0 8.0 0.00 0.18 0.18 82 1009.1
20260506212530 21 99 0.0 6.4 0.00 0.18 0.18 83 1009.0
20260506212025 21 94 4.8 8.0 0.00 0.18 0.18 83 1008.9
20260506211521 21 107 3.2 12.9 0.00 0.18 0.18 83 1008.9
20260506211018 21 225 0.0 11.3 0.00 0.18 0.18 83 1009.0
20260506210515 21 54 0.0 11.3 0.00 0.18 0.18 84 1009.0
20260506210011 21 282 9.7 12.9 0.00 0.18 0.18 83 1008.9